www.pogodaiklimat.ru

Погода и климат >> Архив погоды >> Хорватия >> Мали-Лошинь


ПОГОДА в Мали-Лошине

  • Прогноз погоды в Мали-Лошине
  • Монитор погоды в Мали-Лошине

АРХИВ ПОГОДЫ в Мали-Лошине

Время (UTC), дата Ветер
(напр.,м/с)
 
Видим.   Явления Облачность Т
(С)
Тd
(С)
f
(%)
Тe
(С)
Тes
(С)
Комфортность P
(гПа)
Po
(гПа)
Тmin
(С)
Tmax
(С)
R
(мм)
R24
(мм)
S
(см)
19 16.07 З 3 20 км ясно +24.3 +17.6 66 +28 +28 душно 1012.0 1005.9
20 16.07 З 2 20 км ясно +23.4 +18.4 74 +30 +30 очень
душно
1012.7 1006.6
21 16.07 СЗ 2 н/о н/о +22.6 +15.3 63 +26 +26 жарко 1013.1 1006.9
00 17.07 С 2 н/о н/о +21.9 +13.9 60 +25 +25 комфорт 1013.5 1007.3
03 17.07 С 2 н/о н/о +21.0 +13.5 62 +24 +24 комфорт 1013.2 1007.0
04 17.07 С 2 н/о н/о +21.1 +13.6 62 +24 +24 комфорт 1013.2 1007.0
05 17.07 н/о н/о +22.1 +12.4 54 1013.3 1007.1
06 17.07 СВ 2 22 км ясно +23.1 +13.0 53 +26 +30 жарко 1013.2 1007.1 +20.8
07 17.07 СВ 2 25 км ясно +24.5 +14.4 53 +27 +34 жарко 1013.5 1007.4
08 17.07 В 2 25 км ясно +25.6 +16.6 58 +29 +41 душно 1013.4 1007.3
09 17.07 В 1 25 км 1/0
[Ci fib]
+27.0 +10.1 35 +28 +45 жарко 1013.3 1007.2
10 17.07 З 1 25 км 3/1 1000 м
[Cu hum Cs]
+28.8 +12.9 38 +30 +48 жарко 1012.9 1006.9
11 17.07 ЮЗ 3 25 км 3/0
[Cs]
+29.6 +14.4 40 +32 +46 душно 1012.6 1006.6
12 17.07 ЮЗ 5 25 км 3/1 1000 м
[Cu hum Ci sp]
+29.5 +14.8 41 +32 +40 душно 1012.5 1006.5
13 17.07 ЮЗ 6 25 км 4/0
[Cs]
+28.8 +14.5 42 +31 +37 жарко 1012.2 1006.2
14 17.07 ЮЗ 5 н/о н/о +28.7 +16.3 47 +32 +32 душно 1012.0 1006.0
15 17.07 ЮЗ 5 н/о н/о +27.7 +17.9 55 +32 +32 очень
душно
1011.9 1005.8
16 17.07 ЮЗ 5 н/о н/о +27.9 +17.2 52 +32 +32 душно 1011.3 1005.2
17 17.07 ЮЗ 4 н/о н/о +27.2 +19.4 62 +33 +33 очень
душно
1011.0 1004.9
18 17.07 ЮЗ 4 15 км 3/0
[Ci sp]
+25.5 +19.5 69 +31 +31 очень
душно
1010.8 1004.7 +30.0
19 17.07 З 3 15 км 3/0
[As trans Ci sp]
+24.1 +20.0 78 +30 +30 очень
душно
1011.0 1004.9
20 17.07 З 2 15 км 3/0
[As trans Ci sp]
+23.5 +20.3 82 +29 +29 душно 1011.5 1005.4
21 17.07 З 1 н/о н/о +22.8 +18.0 74 +28 +28 душно 1011.3 1005.1
00 18.07 СВ 1 н/о н/о +22.7 +14.6 60 +26 +26 жарко 1011.1 1004.9
03 18.07 СВ 1 н/о н/о +21.2 +16.7 75 +25 +25 комфорт 1010.8 1004.6
04 18.07 СВ 1 н/о н/о +21.1 +16.6 75 +25 +25 комфорт 1010.9 1004.7
05 18.07 С 2 н/о н/о +22.0 +18.1 79 +27 +27 душно 1011.3 1005.1
06 18.07 СВ 2 20 км 3/0
[Ac und]
+23.3 +17.5 70 +29 +32 душно 1011.3 1005.2 +20.6
07 18.07 СВ 3 20 км 3/0
[Ac und]
+24.5 +18.2 68 +29 +34 душно 1011.4 1005.3
08 18.07 СВ 3 20 км 5/0
[Ac und]
+25.5 +17.5 61 +30 +36 душно 1011.6 1005.5
09 18.07 В 2 20 км 4/0
[Ac trans Ci fib]
+26.3 +17.4 58 +30 +42 душно 1011.9 1005.8
10 18.07 СВ 2 20 км 5/1 1000 м
[Cu hum Ac trans]
+26.0 +18.4 63 +31 +42 очень
душно
1011.8 1005.7
11 18.07 СВ 1 20 км 3/1 1000 м
[Cu hum Ac trans Cc]
+27.5 +16.4 51 +31 +49 душно 1011.9 1005.9
12 18.07 З 1 20 км 3/0
[Ac trans Ci sp]
+29.2 +14.0 39 +31 +50 жарко 1011.8 1005.8
13 18.07 ЮЗ 4 20 км 5/1 1000 м
[Cu med, cong Ci sp]
+30.0 +17.2 46 +34 +42 очень
душно
1011.9 1005.9
14 18.07 ЮЗ 4 н/о н/о +30.0 +16.1 43 +33 +33 душно 1011.7 1005.7
15 18.07 ЮЗ 3 н/о н/о +29.9 +16.8 45 +33 +33 душно 1011.6 1005.6
16 18.07 З 4 н/о н/о +28.0 +18.5 56 +33 +33 очень
душно
1011.8 1005.7
17 18.07 З 2 н/о н/о +27.0 +17.5 56 +31 +31 душно 1012.0 1005.9
18 18.07 З 1 20 км 5/0
[Ac As Ci sp]
+25.8 +18.5 64 +31 +31 очень
душно
1012.1 1006.0 +30.4
19 18.07 Ю 1 20 км 3/0
[Ac As Ci sp]
+24.9 +18.8 69 +30 +30 душно 1012.4 1006.3
20 18.07 З 1 20 км 3/0
[Ac As]
+24.2 +17.4 66 +28 +28 душно 1012.8 1006.7
21 18.07 Ю 1 н/о н/о +23.6 +16.9 66 +27 +27 жарко 1013.4 1007.2
00 19.07 ЮЗ 1 н/о н/о +23.3 +18.9 76 +30 +30 очень
душно
1014.1 1007.9
03 19.07 штиль 0 н/о н/о +22.2 +18.9 82 +28 +28 душно 1014.3 1008.1
04 19.07 штиль 0 н/о н/о +21.9 +19.0 84 +27 +27 душно 1014.5 1008.3
05 19.07 штиль 0 н/о н/о +22.4 +19.2 82 +28 +28 душно 1014.7 1008.5
06 19.07 С 2 20 км 1/0
[Ci fib]
+23.6 +18.2 72 +28 +32 душно 1014.9 1008.8 +21.8
07 19.07 СВ 2 20 км 3/0
[Cc]
+25.0 +18.6 68 +30 +37 душно 1015.3 1009.2
08 19.07 СВ 2 20 км 1/0
[Ci fib]
+25.1 +19.7 72 +31 +42 очень
душно
1015.6 1009.5
09 19.07 СВ 2 20 км 3/0
[Ci fib]
+26.6 +20.8 71 +33 +47 очень
душно
1015.7 1009.6
10 19.07 Ю 2 25 км 3/1 1000 м
[Cu med, cong Ci fib]
+29.1 +18.0 51 +34 +49 очень
душно
1016.0 1010.0
11 19.07 ЮЗ 4 25 км 3/1 1000 м
[Cu med, cong Ci fib]
+29.6 +17.5 48 +34 +44 очень
душно
1016.0 1010.0
12 19.07 ЮЗ 5 25 км 3/3 1000 м
[Cu med, cong Ci fib]
+29.5 +20.6 59 +37 +43 очень
душно
1016.0 1010.0
13 19.07 ЮЗ 4 25 км 4/3 1000 м
[Cb cap Ci fib]
+29.4 +18.7 53 +35 +42 очень
душно
1015.8 1009.8
14 19.07 ЮЗ 4 н/о н/о +30.1 +17.3 46 +34 +34 очень
душно
1015.5 1009.5
15 19.07 З 3 н/о н/о +29.1 +16.0 45 +32 +32 душно 1015.6 1009.5
16 19.07 З 3 н/о н/о +29.4 +17.3 48 +33 +33 душно 1015.5 1009.4
17 19.07 ЮЗ 2 н/о н/о +29.4 +16.3 45
18 19.07 З 2 20 км 3/0
[Ci fib]
+27.4 +18.0 57 +32 +32 очень
душно
1015.6 1009.5 +30.1
19 19.07 ЮЗ 1 20 км 1/0
[Ci fib]
+25.7 +17.7 61 +30 +30 душно 1015.7 1009.6
20 19.07 ЮЗ 1 20 км 1/0
[Ci fib]
+24.3 +19.1 73 +29 +29 душно 1016.4 1010.3
21 19.07 ЮЗ 1 н/о н/о +23.4 +20.0 81 +30 +30 очень
душно
1016.8 1010.6
00 20.07 Ю 2 н/о н/о +22.5 +18.5 78 +28 +28 душно 1016.9 1010.7
03 20.07 С 1 н/о н/о +21.7 +16.9 74 +26 +26 душно 1017.0 1010.8
04 20.07 СВ 1 н/о н/о +21.3 +17.6 79 +25 +25 комфорт 1017.1 1010.9
05 20.07 СВ 1 н/о н/о +21.8 +17.5 77 +26 +26 душно 1017.4 1011.2
06 20.07 В 2 25 км ясно +23.8 +18.5 72 +28 +32 душно 1017.6 1011.5 +21.0
07 20.07 СВ 2 25 км ясно +25.0 +19.7 72 +30 +38 душно 1017.8 1011.7
08 20.07 В 2 25 км ясно +26.2 +21.2 74 +33 +44 очень
душно
1017.8 1011.7
09 20.07 Ю 2 25 км ясно +28.0 +15.7 47 +31 +46 душно 1018.2 1012.1
10 20.07 Ю 3 25 км ясно +29.7 +18.0 49 +34 +49 очень
душно
1018.4 1012.4
11 20.07 ЮЗ 4 25 км ясно +30.0 +19.7 54 +36 +49 очень
душно
1018.4 1012.4
12 20.07 Ю 3 25 км ясно +30.6 +16.0 41 +33 +48 душно 1018.4 1012.4
13 20.07 Ю 3 25 км 1/0
[Ci fib]
+31.6 +17.9 44 +36 +48 очень
душно
1018.4 1012.4
14 20.07 ЮЗ 3 н/о н/о +31.7 +14.9 36 +34 +34 душно 1018.2 1012.2
15 20.07 Ю 3 н/о н/о +32.2 +15.7 37 +35 +35 очень
душно
1018.1 1012.1
17 20.07 Ю 3 н/о н/о +29.3 +19.7 56 +35 +35 очень
душно
1017.5 1011.4
18 20.07 Ю 2 20 км 3/0
[Ci sp]
+27.5 +20.1 64 +34 +34 очень
душно
1017.5 1011.4 +31.8
19 20.07 ЮЗ 1 20 км 3/0
[As trans Ci sp]
+26.2 +18.6 63 +31 +31 очень
душно
1017.7 1011.6
20 20.07 ЮВ 1 20 км 3/0
[As trans Ci fib]
+25.0 +20.3 75 +31 +31 очень
душно
1018.2 1012.1
21 20.07 ЮВ 1 н/о н/о +24.2 +20.6 80 +30 +30 очень
душно
1018.7 1012.5
00 21.07 В 1 н/о н/о +23.2 +21.4 90 +31 +31 очень
душно
1019.3 1013.1
03 21.07 В 1 н/о н/о +22.5 +21.2 92 +30 +30 очень
душно
1018.5 1012.3
04 21.07 ЮВ 1 н/о н/о +22.5 +19.5 83 +29 +29 очень
душно
1018.6 1012.4
05 21.07 СВ 1 н/о н/о +23.6 +20.4 82 +29 +29 душно 1019.2 1013.0
06 21.07 СВ 2 20 км 4/0
[Ci sp]
+24.2 +21.7 86 +31 +34 очень
душно
1019.2 1013.1 +22.4
07 21.07 СВ 2 20 км 4/0
[Cs]
+25.3 +21.8 81 +33 +39 очень
душно
1019.3 1013.2
08 21.07 СВ 2 20 км 3/0
[Ci sp]
+27.2 +18.3 58 +32 +42 очень
душно
1019.1 1013.0
09 21.07 СВ 2 20 км 3/0
[Ci fib]
+28.2 +21.3 66 +36 +50 очень
душно
1019.4 1013.3
10 21.07 В 2 20 км 3/1 1000 м
[Cu hum Ci fib]
+28.2 +20.9 65 +35 +50 очень
душно
1019.4 1013.3
11 21.07 Ю 2 20 км 3/1 1000 м
[Cu hum Ci fib]
+29.8 +21.6 61 +38 +54 опасность
солнечного
удара
1019.4 1013.4
12 21.07 Ю 3 15 км 1/0
[Ci fib]
+30.8 +22.1 60 +40 +54 опасность
солнечного
удара
1019.4 1013.4
13 21.07 Ю 3 13 км 1/1 1000 м
[Cu med, cong]
+31.0 +21.7 58 +39 +51 опасность
солнечного
удара
1019.1 1013.1
14 21.07 Ю 4 н/о н/о +31.3 +20.0 51 +38 +38 очень
душно
1018.8 1012.8
15 21.07 Ю 4 н/о н/о +30.8 +21.1 56 +38 +38 очень
душно
1018.3 1012.3
16 21.07 Ю 3 н/о н/о +29.8 +22.1 63 +38 +38 очень
душно
1018.5 1012.4
17 21.07 ЮЗ 3 н/о н/о +28.5 +22.6 70 +37 +37 очень
душно
1018.6 1012.5
18 21.07 СЗ 1 13 км 5/0
[Ac As Ci sp]
+27.1 +21.5 71 +34 +35 очень
душно
1018.9 1012.8 +31.3
19 21.07 ЮЗ 1 13 км 3/0
[Ci sp]
+26.0 +22.3 80 +34 +34 очень
душно
1019.2 1013.1
20 21.07 З 1 15 км 1/0
[Ci sp]
+25.5 +22.8 85 +34 +34 очень
душно
1019.5 1013.4
21 21.07 ЮЗ 1 н/о н/о +24.7 +21.9 84 +32 +32 очень
душно
1020.0 1013.8
00 22.07 З 2 н/о н/о +24.4 +21.2 82 +31 +31 очень
душно
1020.2 1014.0
03 22.07 СЗ 3 н/о н/о +25.1 +18.4 66 +30 +30 душно 1019.7 1013.5
04 22.07 СВ 2 н/о н/о +24.5 +19.4 73 +30 +30 очень
душно
1019.7 1013.5
05 22.07 С 1 н/о н/о +24.9 +19.6 72 +30 +30 душно 1020.1 1013.9
06 22.07 С 2 20 км 3/0
[Ci sp]
+25.9 +19.7 69 +32 +35 очень
душно
1020.4 1014.3 +24.3
07 22.07 С 2 20 км 4/0
[Ci sp]
+27.3 +18.1 57 +32 +38 очень
душно
1020.4 1014.3
08 22.07 С 2 20 км 3/0
[Ci sp]
+28.5 +17.4 51 +33 +43 очень
душно
1020.4 1014.3
09 22.07 С 2 20 км 3/0
[Ci sp]
+30.0 +18.0 49 +35 +49 очень
душно
1020.4 1014.4
10 22.07 С 2 20 км 3/0
[Ci sp]
+31.5 +17.4 43 +35 +52 опасность
солнечного
удара
1020.4 1014.4
11 22.07 СВ 1 20 км 4/1 1000 м
[Cu hum Ci sp]
+32.7 +18.0 42 +37 +55 опасность
солнечного
удара
1020.3 1014.3
12 22.07 З 2 20 км 4/1 1000 м
[Cu hum Ci sp]
+33.7 +17.3 38 +37 +52 опасность
солнечного
удара
1020.1 1014.1
13 22.07 З 4 20 км 3/1 1000 м
[Cu hum Ci sp]
+34.1 +17.4 37 +38 +46 очень
душно
1019.8 1013.8
14 22.07 ЮЗ 4 н/о н/о +32.1 +22.3 56 +41 +41 опасность
перегрева
1019.5 1013.5
15 22.07 З 4 н/о н/о +31.3 +19.4 49 +37 +37 очень
душно
1019.3 1013.3
16 22.07 СЗ 4 н/о н/о +31.0 +19.8 51 +37 +37 очень
душно
1018.9 1012.9
17 22.07 СЗ 3 н/о н/о +30.1 +19.5 53 +36 +36 очень
душно
1018.8 1012.7
18 22.07 СЗ 3 20 км 5/0
[As trans Ci sp]
+30.2 +16.7 44 +34 +34 очень
душно
1018.7 1012.7 +34.3
19 22.07 СЗ 2 20 км 4/0
[As trans Ci sp]
+29.2 +16.3 46 +33 +33 очень
душно
1019.1 1013.1
20 22.07 С 2 20 км 3/0
[As trans Ci sp]
+27.7 +17.0 52 +32 +32 очень
душно
1019.6 1013.5
21 22.07 СЗ 2 н/о н/о +26.9 +16.3 52
00 23.07 СВ 1 н/о н/о +25.8 +17.5 60 +30 +30 душно 1019.6 1013.4
03 23.07 С 2 н/о н/о +24.9 +17.9 65 +29 +29 душно 1019.0 1012.8
04 23.07 н/о н/о +24.5 +17.8 66 1019.1 1012.9
05 23.07 С 2 н/о н/о +25.3 +17.6 62 +29 +29 душно 1019.2 1013.0
06 23.07 С 3 25 км ясно +26.5 +18.6 62 +31 +34 душно 1019.2 1013.1 +24.5
07 23.07 С 2 25 км 1/0
[Ci fib]
+27.8 +18.5 57 +33 +40 очень
душно
1019.4 1013.3
08 23.07 С 2 25 км 1/0
[Ci fib]
+28.8 +17.9 52 +33 +44 очень
душно
1019.5 1013.4
09 23.07 В 2 25 км 1/0
[Ci fib]
+30.7 +16.4 42 +34 +48 очень
душно
1019.1 1013.1
10 23.07 В 1 25 км ясно +31.5 +16.1 40 +34 +55 опасность
солнечного
удара
1019.0 1013.0
11 23.07 ЮЗ 4 25 км 1/1 1000 м
[Cu hum]
+32.1 +18.0 43 +36 +47 очень
душно
1018.8 1012.8
12 23.07 ЮЗ 4 25 км 1/1 1000 м
[Cu hum]
+32.5 +17.4 41 +36 +47 очень
душно
1018.5 1012.5
13 23.07 ЮЗ 5 25 км 3/3 1000 м
[Cu hum]
+32.1 +17.4 42 +36 +42 очень
душно
1018.0 1012.0
14 23.07 З 5 н/о н/о +31.8 +17.4 42 +36 +36 очень
душно
1017.7 1011.7
15 23.07 З 6 н/о н/о +31.5 +13.8 34 +33 +33 жарко 1017.3 1011.3
17 23.07 З 4 н/о н/о +31.4 +14.2 35 +33 +33 жарко 1016.4 1010.4

 

Местоположение метеостанции Мали-Лошинь (Хорватия): широта 44.53 долгота 14.48 высота над уровнем моря 53 м.

В архиве по умолчанию представлена погода в Мали-Лошине за последнюю неделю. Архивные данные за месяц целиком и за предыдущие месяцы, начиная с января 2011 года, Вы можете получить, выбрав интересующий диапазон дат из раскрывающегося списка и нажав кнопку "Ввод!".


*Определитесь, кто Вы:
робот инопланетянин человек

Внимание! Время в таблицах - всемирное. Для получения местного времени необходимо прибавить поправку, которая равна 1 ч.

Смотрите также архив погоды в соседних городах и на ближайших метеорологических станциях:

Погода в Рабе (Хорватия) (34 км)
Погода в Завизани (Хорватия) (51 км)
Погода в Пуле (Хорватия) (60 км)
Погода в Сене (Хорватия) (62 км)
Погода в Госпиче (Хорватия) (71 км)
Погода в Задаре (Хорватия) (74 км)
Погода в Риека аэропорту (Хорватия) (77 км)
Погода в Задар аэропорту (Хорватия) (84 км)
Погода в Риеке (Хорватия) (89 км)
Погода в Пазине (Хорватия) (89 км)

Пояснения к столбцам:

Ветер - указаны скорость ветра в м/с - средняя за 10 мин, порывы в срок и между сроками (в фигурных скобках) и направление, откуда дует ветер: С - северный, СВ - северо-восточный, В - восточный, ЮВ - юго-восточный, Ю - южный, ЮЗ - юго-западный, З - западный, СЗ - северо-западный.
Видимость - горизонтальная дальность видимости в метрах или километрах. При видимости от 1 до 10 км при отсутствии осадков обычно наблюдается дымка, при ухудшении видимости до 1 км и менее - туман. В сухую погоду видимость может ухудшаться дымом, пылью или мглою.
Явления - указаны атмосферные явления, наблюдавшиеся в срок или в последний час перед сроком; фигурными скобками обозначены явления, наблюдавшиеся между сроками (за 1-3 часа до срока); квадратными скобками обозначены град или гололедные отложения с указанием их диаметра в мм.
Облачность - указаны через наклонную черту общая и нижняя облачность в баллах и высота нижней границы облаков в метрах; квадратными скобками обозначены формы облаков: Ci - перистые, Cs - перисто-слоистые, Cc - перисто-кучевые, Ac - высококучевые, As - высокослоистые, Sc - слоисто-кучевые, Ns - слоисто-дождевые, Cu - кучевые, Cb - кучево-дождевые. Подробнее классификацию облаков см. в Атласе облаков (PDF).
T - Температура воздуха - температура, измеренная на высоте 2 м над землей.
Td - Температура точки росы - температура, при понижении до которой содержащийся в воздухе водяной пар достигнет насыщения.
f - Относительная влажность воздуха - влажноcть воздуха, измеренная на высоте 2 м над землей.
Te - Эффективная температура - температура, которую ощущает одетый по сезону человек в тени. Характеристика душности погоды. При расчете учитывается влияние влажности воздуха и скорости ветра на теплоощущения человека.
Tes - Эффективная температура на солнце - температура, которую ощущает человек, с поправкой на солнечный нагрев. Характеристика знойности погоды. Зависит от высоты солнца над горизонтом, облачности и скорости ветра. Ночью, в пасмурную погоду, а также при ветре 12 м/с и более поправка равна нулю.
P - Атмосферное давление - приведенное к уровню моря атмосферное давление.
Po - Атмосферное давление - измеренное на уровне метеостанции атмосферное давление.
Tmin - Минимальная температура - минимум температуры воздуха на высоте 2 м над землей.
Tmax - Максимальная температура - максимум температуры воздуха на высоте 2 м над землей.
R - Количество осадков - Количество выпавших осадков за период времени, мм. При наведении курсора мыши на число - период времени, за который выпало указанное количество осадков.
R24 - Количество осадков - Количество выпавших осадков за 24 часа, мм.
S - Снежный покров - Высота снежного покрова, см. При наведении курсора мыши на число - состояние снежного покрова и степень покрытия местности в баллах.